| time (UTC) | temp F | wind direction | speed MPH | gust MPH | rain 1hr in | rain 24hr in | rain mn in | humidity % | barometer mb |
| 20260504223906 | 83 | 175 | 11.0 | 18.0 | 0.00 | 0.00 | 0.00 | 54 | 1007.2 |
| 20260504223805 | 84 | 171 | 11.0 | 18.0 | 0.00 | 0.00 | 0.00 | 55 | 1007.3 |
| 20260504223705 | 83 | 170 | 11.0 | 18.0 | 0.00 | 0.00 | 0.00 | 55 | 1007.3 |
| 20260504223605 | 83 | 169 | 10.0 | 18.0 | 0.00 | 0.00 | 0.00 | 54 | 1007.4 |
| 20260504223405 | 83 | 162 | 10.0 | 18.0 | 0.00 | 0.00 | 0.00 | 55 | 1007.5 |
| 20260504223206 | 83 | 161 | 10.0 | 18.0 | 0.00 | 0.00 | 0.00 | 55 | 1007.5 |
| 20260504223105 | 83 | 160 | 11.0 | 18.0 | 0.00 | 0.00 | 0.00 | 55 | 1007.5 |
| 20260504223005 | 83 | 162 | 10.0 | 19.0 | 0.00 | 0.00 | 0.00 | 54 | 1007.4 |
| 20260504222905 | 83 | 163 | 11.0 | 19.0 | 0.00 | 0.00 | 0.00 | 54 | 1007.4 |
| 20260504222806 | 83 | 166 | 11.0 | 20.0 | 0.00 | 0.00 | 0.00 | 54 | 1007.4 |
| 20260504222705 | 83 | 168 | 11.0 | 20.0 | 0.00 | 0.00 | 0.00 | 54 | 1007.5 |
| 20260504222605 | 83 | 170 | 11.0 | 20.0 | 0.00 | 0.00 | 0.00 | 54 | 1007.5 |
| 20260504222505 | 83 | 171 | 11.0 | 20.0 | 0.00 | 0.00 | 0.00 | 54 | 1007.5 |
| 20260504222405 | 84 | 174 | 11.0 | 20.0 | 0.00 | 0.00 | 0.00 | 54 | 1007.6 |
| 20260504222306 | 84 | 175 | 11.0 | 20.0 | 0.00 | 0.00 | 0.00 | 54 | 1007.6 |
| 20260504222205 | 84 | 176 | 10.0 | 20.0 | 0.00 | 0.00 | 0.00 | 54 | 1007.6 |
| 20260504222105 | 84 | 177 | 10.0 | 20.0 | 0.00 | 0.00 | 0.00 | 54 | 1007.6 |
| 20260504222005 | 84 | 176 | 11.0 | 20.0 | 0.00 | 0.00 | 0.00 | 54 | 1007.6 |
| 20260504221905 | 84 | 175 | 11.0 | 20.0 | 0.00 | 0.00 | 0.00 | 54 | 1007.8 |
| 20260504221805 | 84 | 177 | 11.0 | 19.0 | 0.00 | 0.00 | 0.00 | 53 | 1007.7 |
| 20260504221605 | 84 | 177 | 10.0 | 19.0 | 0.00 | 0.00 | 0.00 | 54 | 1007.8 |
| 20260504221505 | 84 | 182 | 10.0 | 19.0 | 0.00 | 0.00 | 0.00 | 55 | 1007.8 |
| 20260504221405 | 84 | 182 | 11.0 | 19.0 | 0.00 | 0.00 | 0.00 | 54 | 1007.8 |
| 20260504221305 | 84 | 183 | 11.0 | 19.0 | 0.00 | 0.00 | 0.00 | 55 | 1007.8 |
| 20260504221205 | 83 | 184 | 11.0 | 19.0 | 0.00 | 0.00 | 0.00 | 54 | 1007.8 |
| 20260504221105 | 83 | 185 | 11.0 | 19.0 | 0.00 | 0.00 | 0.00 | 54 | 1007.8 |
| 20260504221005 | 83 | 185 | 11.0 | 19.0 | 0.00 | 0.00 | 0.00 | 54 | 1007.8 |
| 20260504220905 | 83 | 188 | 11.0 | 19.0 | 0.00 | 0.00 | 0.00 | 54 | 1007.8 |
| 20260504220805 | 83 | 187 | 12.0 | 19.0 | 0.00 | 0.00 | 0.00 | 54 | 1007.8 |
| 20260504220705 | 83 | 186 | 12.0 | 22.0 | 0.00 | 0.00 | 0.00 | 54 | 1007.7 |
| 20260504220506 | 83 | 184 | 12.0 | 23.0 | 0.00 | 0.00 | 0.00 | 54 | 1007.8 |
| 20260504220405 | 83 | 186 | 12.0 | 23.0 | 0.00 | 0.00 | 0.00 | 54 | 1007.8 |
| 20260504220306 | 83 | 186 | 12.0 | 23.0 | 0.00 | 0.00 | 0.00 | 54 | 1007.8 |
| 20260504220206 | 83 | 185 | 12.0 | 23.0 | 0.00 | 0.00 | 0.00 | 54 | 1007.8 |
| 20260504220107 | 83 | 186 | 12.0 | 23.0 | 0.00 | 0.00 | 0.00 | 53 | 1007.8 |
| 20260504215905 | 84 | 192 | 12.0 | 23.0 | 0.00 | 0.00 | 0.00 | 52 | 1007.8 |
| 20260504215805 | 84 | 194 | 12.0 | 23.0 | 0.00 | 0.00 | 0.00 | 53 | 1007.9 |
| 20260504215705 | 84 | 197 | 11.0 | 23.0 | 0.00 | 0.00 | 0.00 | 53 | 1007.9 |
| 20260504215505 | 84 | 199 | 11.0 | 18.0 | 0.00 | 0.00 | 0.00 | 53 | 1007.9 |
| 20260504215405 | 84 | 197 | 11.0 | 18.0 | 0.00 | 0.00 | 0.00 | 52 | 1007.9 |
| 20260504215305 | 84 | 197 | 11.0 | 18.0 | 0.00 | 0.00 | 0.00 | 52 | 1007.9 |
| 20260504215206 | 84 | 199 | 12.0 | 18.0 | 0.00 | 0.00 | 0.00 | 53 | 1007.9 |
| 20260504215105 | 84 | 196 | 12.0 | 18.0 | 0.00 | 0.00 | 0.00 | 54 | 1007.9 |
| 20260504215006 | 84 | 194 | 11.0 | 18.0 | 0.00 | 0.00 | 0.00 | 53 | 1007.9 |
| 20260504214905 | 84 | 192 | 11.0 | 18.0 | 0.00 | 0.00 | 0.00 | 54 | 1007.9 |
| 20260504214806 | 84 | 191 | 11.0 | 18.0 | 0.00 | 0.00 | 0.00 | 54 | 1008.0 |
| 20260504214705 | 83 | 187 | 11.0 | 18.0 | 0.00 | 0.00 | 0.00 | 54 | 1008.0 |
| 20260504214606 | 83 | 187 | 11.0 | 18.0 | 0.00 | 0.00 | 0.00 | 54 | 1008.0 |
| 20260504214406 | 84 | 184 | 11.0 | 18.0 | 0.00 | 0.00 | 0.00 | 53 | 1007.9 |
| 20260504214305 | 84 | 182 | 10.0 | 18.0 | 0.00 | 0.00 | 0.00 | 53 | 1008.0 |
| 20260504214206 | 84 | 178 | 10.0 | 18.0 | 0.00 | 0.00 | 0.00 | 53 | 1008.0 |
| 20260504214105 | 84 | 181 | 10.0 | 18.0 | 0.00 | 0.00 | 0.00 | 54 | 1008.0 |
| 20260504214007 | 84 | 182 | 10.0 | 18.0 | 0.00 | 0.00 | 0.00 | 54 | 1007.9 |
| 20260504213905 | 83 | 181 | 10.0 | 18.0 | 0.00 | 0.00 | 0.00 | 53 | 1007.9 |
| 20260504213805 | 84 | 182 | 9.0 | 18.0 | 0.00 | 0.00 | 0.00 | 55 | 1008.0 |
| 20260504213705 | 83 | 183 | 10.0 | 17.0 | 0.00 | 0.00 | 0.00 | 54 | 1007.9 |
| 20260504213405 | 83 | 186 | 10.0 | 15.0 | 0.00 | 0.00 | 0.00 | 54 | 1008.1 |
| 20260504213305 | 83 | 191 | 10.0 | 22.0 | 0.00 | 0.00 | 0.00 | 53 | 1008.0 |
| 20260504213206 | 84 | 192 | 10.0 | 22.0 | 0.00 | 0.00 | 0.00 | 53 | 1008.1 |
| 20260504213105 | 84 | 192 | 10.0 | 22.0 | 0.00 | 0.00 | 0.00 | 53 | 1008.2 |
| 20260504213005 | 84 | 193 | 11.0 | 22.0 | 0.00 | 0.00 | 0.00 | 53 | 1008.1 |
| 20260504212905 | 84 | 191 | 11.0 | 22.0 | 0.00 | 0.00 | 0.00 | 53 | 1008.2 |
| 20260504212805 | 84 | 187 | 11.0 | 25.0 | 0.00 | 0.00 | 0.00 | 53 | 1008.2 |
| 20260504212707 | 84 | 184 | 11.0 | 25.0 | 0.00 | 0.00 | 0.00 | 53 | 1008.3 |
| 20260504212605 | 84 | 181 | 12.0 | 25.0 | 0.00 | 0.00 | 0.00 | 54 | 1008.2 |
| 20260504212505 | 84 | 177 | 12.0 | 25.0 | 0.00 | 0.00 | 0.00 | 54 | 1008.2 |
| 20260504212405 | 84 | 174 | 12.0 | 25.0 | 0.00 | 0.00 | 0.00 | 53 | 1008.3 |
| 20260504212306 | 84 | 174 | 12.0 | 25.0 | 0.00 | 0.00 | 0.00 | 54 | 1008.3 |
| 20260504212205 | 84 | 173 | 13.0 | 25.0 | 0.00 | 0.00 | 0.00 | 54 | 1008.4 |
| 20260504212105 | 83 | 173 | 13.0 | 25.0 | 0.00 | 0.00 | 0.00 | 54 | 1008.3 |
| 20260504212005 | 84 | 172 | 12.0 | 25.0 | 0.00 | 0.00 | 0.00 | 54 | 1008.3 |
| 20260504211904 | 83 | 172 | 12.0 | 25.0 | 0.00 | 0.00 | 0.00 | 53 | 1008.2 |
| 20260504211805 | 83 | 175 | 11.0 | 20.0 | 0.00 | 0.00 | 0.00 | 53 | 1008.2 |
| 20260504211505 | 84 | 186 | 10.0 | 18.0 | 0.00 | 0.00 | 0.00 | 53 | 1008.5 |
| 20260504211405 | 84 | 189 | 10.0 | 20.0 | 0.00 | 0.00 | 0.00 | 53 | 1008.5 |
| 20260504211305 | 84 | 189 | 10.0 | 20.0 | 0.00 | 0.00 | 0.00 | 53 | 1008.5 |
| 20260504211205 | 84 | 188 | 9.0 | 20.0 | 0.00 | 0.00 | 0.00 | 52 | 1008.5 |
| 20260504211105 | 85 | 191 | 9.0 | 20.0 | 0.00 | 0.00 | 0.00 | 53 | 1008.5 |
| 20260504210905 | 84 | 192 | 9.0 | 20.0 | 0.00 | 0.00 | 0.00 | 53 | 1008.5 |
| 20260504210806 | 84 | 191 | 9.0 | 20.0 | 0.00 | 0.00 | 0.00 | 55 | 1008.6 |
| 20260504210705 | 84 | 188 | 10.0 | 20.0 | 0.00 | 0.00 | 0.00 | 55 | 1008.6 |
| 20260504210606 | 84 | 186 | 10.0 | 20.0 | 0.00 | 0.00 | 0.00 | 55 | 1008.6 |
| 20260504210505 | 84 | 184 | 11.0 | 20.0 | 0.00 | 0.00 | 0.00 | 55 | 1008.7 |
| 20260504210105 | 82 | 175 | 11.0 | 20.0 | 0.00 | 0.00 | 0.00 | 55 | 1008.7 |
| 20260504210005 | 82 | 174 | 11.0 | 20.0 | 0.00 | 0.00 | 0.00 | 55 | 1008.8 |
| 20260504205905 | 82 | 174 | 11.0 | 20.0 | 0.00 | 0.00 | 0.00 | 55 | 1008.9 |
| 20260504205705 | 82 | 175 | 12.0 | 20.0 | 0.00 | 0.00 | 0.00 | 54 | 1008.7 |
| 20260504205606 | 82 | 178 | 12.0 | 20.0 | 0.00 | 0.00 | 0.00 | 55 | 1008.8 |
| 20260504205505 | 82 | 181 | 11.0 | 20.0 | 0.00 | 0.00 | 0.00 | 55 | 1008.8 |
| 20260504205406 | 82 | 184 | 11.0 | 18.0 | 0.00 | 0.00 | 0.00 | 55 | 1008.8 |
| 20260504205305 | 82 | 186 | 11.0 | 18.0 | 0.00 | 0.00 | 0.00 | 55 | 1008.8 |
| 20260504205206 | 82 | 186 | 11.0 | 20.0 | 0.00 | 0.00 | 0.00 | 55 | 1008.9 |
| 20260504205105 | 82 | 186 | 11.0 | 20.0 | 0.00 | 0.00 | 0.00 | 55 | 1008.9 |
| 20260504204806 | 83 | 195 | 11.0 | 21.0 | 0.00 | 0.00 | 0.00 | 54 | 1009.1 |
| 20260504204705 | 83 | 197 | 11.0 | 21.0 | 0.00 | 0.00 | 0.00 | 55 | 1009.0 |
| 20260504204605 | 83 | 198 | 11.0 | 21.0 | 0.00 | 0.00 | 0.00 | 54 | 1009.1 |
| 20260504204305 | 83 | 196 | 12.0 | 22.0 | 0.00 | 0.00 | 0.00 | 54 | 1009.2 |
| 20260504204205 | 82 | 194 | 12.0 | 22.0 | 0.00 | 0.00 | 0.00 | 55 | 1009.2 |
| 20260504204105 | 82 | 193 | 12.0 | 22.0 | 0.00 | 0.00 | 0.00 | 55 | 1009.1 |
| 20260504203806 | 83 | 189 | 12.0 | 22.0 | 0.00 | 0.00 | 0.00 | 55 | 1009.1 |
| 20260504203705 | 82 | 189 | 12.0 | 22.0 | 0.00 | 0.00 | 0.00 | 54 | 1009.2 |
| 20260504203605 | 82 | 188 | 12.0 | 22.0 | 0.00 | 0.00 | 0.00 | 54 | 1009.3 |
| 20260504203505 | 82 | 187 | 12.0 | 22.0 | 0.00 | 0.00 | 0.00 | 54 | 1009.3 |
| 20260504203405 | 82 | 188 | 12.0 | 20.0 | 0.00 | 0.00 | 0.00 | 54 | 1009.3 |
| 20260504203306 | 82 | 190 | 11.0 | 20.0 | 0.00 | 0.00 | 0.00 | 54 | 1009.2 |
| 20260504203105 | 82 | 193 | 11.0 | 20.0 | 0.00 | 0.00 | 0.00 | 54 | 1009.3 |
| 20260504203005 | 82 | 192 | 11.0 | 20.0 | 0.00 | 0.00 | 0.00 | 54 | 1009.3 |
| 20260504202905 | 82 | 191 | 11.0 | 20.0 | 0.00 | 0.00 | 0.00 | 54 | 1009.3 |
| 20260504202805 | 82 | 189 | 11.0 | 20.0 | 0.00 | 0.00 | 0.00 | 55 | 1009.4 |
| 20260504202705 | 82 | 188 | 11.0 | 20.0 | 0.00 | 0.00 | 0.00 | 54 | 1009.4 |
| 20260504202605 | 82 | 188 | 11.0 | 20.0 | 0.00 | 0.00 | 0.00 | 55 | 1009.5 |
| 20260504202405 | 82 | 189 | 10.0 | 19.0 | 0.00 | 0.00 | 0.00 | 55 | 1009.6 |
| 20260504202305 | 82 | 189 | 11.0 | 19.0 | 0.00 | 0.00 | 0.00 | 55 | 1009.6 |
| 20260504202205 | 82 | 192 | 11.0 | 20.0 | 0.00 | 0.00 | 0.00 | 54 | 1009.6 |
| 20260504202105 | 82 | 192 | 11.0 | 20.0 | 0.00 | 0.00 | 0.00 | 55 | 1009.6 |
| 20260504202005 | 82 | 193 | 12.0 | 20.0 | 0.00 | 0.00 | 0.00 | 56 | 1009.6 |
| 20260504201904 | 82 | 192 | 12.0 | 20.0 | 0.00 | 0.00 | 0.00 | 55 | 1009.6 |
| 20260504201805 | 82 | 192 | 12.0 | 20.0 | 0.00 | 0.00 | 0.00 | 55 | 1009.6 |
| 20260504201705 | 82 | 194 | 12.0 | 20.0 | 0.00 | 0.00 | 0.00 | 55 | 1009.6 |
| 20260504201605 | 82 | 195 | 12.0 | 20.0 | 0.00 | 0.00 | 0.00 | 56 | 1009.6 |
| 20260504201506 | 82 | 194 | 11.0 | 20.0 | 0.00 | 0.00 | 0.00 | 56 | 1009.6 |
| 20260504201406 | 82 | 193 | 12.0 | 20.0 | 0.00 | 0.00 | 0.00 | 55 | 1009.6 |
| 20260504201305 | 82 | 192 | 11.0 | 20.0 | 0.00 | 0.00 | 0.00 | 54 | 1009.6 |
| 20260504201204 | 82 | 189 | 11.0 | 20.0 | 0.00 | 0.00 | 0.00 | 56 | 1009.7 |
| 20260504201105 | 82 | 187 | 11.0 | 19.0 | 0.00 | 0.00 | 0.00 | 56 | 1009.7 |
| 20260504201006 | 82 | 188 | 11.0 | 18.0 | 0.00 | 0.00 | 0.00 | 56 | 1009.7 |
| 20260504200905 | 82 | 189 | 10.0 | 18.0 | 0.00 | 0.00 | 0.00 | 56 | 1009.8 |
| 20260504200806 | 82 | 187 | 10.0 | 18.0 | 0.00 | 0.00 | 0.00 | 56 | 1009.8 |
| 20260504200705 | 82 | 186 | 10.0 | 18.0 | 0.00 | 0.00 | 0.00 | 56 | 1009.8 |
| 20260504200604 | 82 | 184 | 11.0 | 18.0 | 0.00 | 0.00 | 0.00 | 56 | 1009.8 |
| 20260504200506 | 81 | 183 | 11.0 | 18.0 | 0.00 | 0.00 | 0.00 | 56 | 1009.9 |
| 20260504200305 | 81 | 181 | 11.0 | 18.0 | 0.00 | 0.00 | 0.00 | 56 | 1010.0 |
| 20260504200105 | 81 | 184 | 11.0 | 18.0 | 0.00 | 0.00 | 0.00 | 56 | 1010.0 |
| 20260504200005 | 81 | 184 | 11.0 | 18.0 | 0.00 | 0.00 | 0.00 | 56 | 1010.1 |
| 20260504195806 | 81 | 187 | 11.0 | 20.0 | 0.00 | 0.00 | 0.00 | 57 | 1010.1 |
| 20260504195605 | 81 | 189 | 11.0 | 20.0 | 0.00 | 0.00 | 0.00 | 56 | 1010.1 |
| 20260504195505 | 81 | 192 | 11.0 | 20.0 | 0.00 | 0.00 | 0.00 | 56 | 1010.1 |
| 20260504195405 | 81 | 194 | 11.0 | 20.0 | 0.00 | 0.00 | 0.00 | 55 | 1010.1 |
| 20260504195305 | 81 | 198 | 11.0 | 20.0 | 0.00 | 0.00 | 0.00 | 56 | 1010.1 |
| 20260504195205 | 81 | 200 | 11.0 | 20.0 | 0.00 | 0.00 | 0.00 | 56 | 1010.2 |
| 20260504195104 | 81 | 199 | 11.0 | 20.0 | 0.00 | 0.00 | 0.00 | 56 | 1010.2 |
| 20260504195005 | 81 | 197 | 11.0 | 20.0 | 0.00 | 0.00 | 0.00 | 56 | 1010.2 |
| 20260504194905 | 81 | 194 | 11.0 | 20.0 | 0.00 | 0.00 | 0.00 | 56 | 1010.2 |
| 20260504194805 | 81 | 192 | 11.0 | 19.0 | 0.00 | 0.00 | 0.00 | 56 | 1010.2 |
| 20260504194704 | 81 | 193 | 11.0 | 19.0 | 0.00 | 0.00 | 0.00 | 55 | 1010.2 |
| 20260504194605 | 82 | 189 | 10.0 | 19.0 | 0.00 | 0.00 | 0.00 | 56 | 1010.3 |
| 20260504194505 | 82 | 184 | 10.0 | 19.0 | 0.00 | 0.00 | 0.00 | 55 | 1010.3 |
| 20260504194305 | 82 | 181 | 11.0 | 19.0 | 0.00 | 0.00 | 0.00 | 57 | 1010.5 |
| 20260504194205 | 81 | 178 | 12.0 | 19.0 | 0.00 | 0.00 | 0.00 | 57 | 1010.5 |
| 20260504194105 | 81 | 177 | 12.0 | 23.0 | 0.00 | 0.00 | 0.00 | 56 | 1010.5 |
| 20260504194005 | 80 | 178 | 12.0 | 23.0 | 0.00 | 0.00 | 0.00 | 58 | 1010.5 |
| 20260504193905 | 80 | 177 | 12.0 | 23.0 | 0.00 | 0.00 | 0.00 | 57 | 1010.5 |
| 20260504193804 | 80 | 179 | 12.0 | 23.0 | 0.00 | 0.00 | 0.00 | 57 | 1010.4 |
| 20260504193705 | 80 | 179 | 12.0 | 23.0 | 0.00 | 0.00 | 0.00 | 55 | 1010.4 |
| 20260504193605 | 80 | 184 | 12.0 | 23.0 | 0.00 | 0.00 | 0.00 | 55 | 1010.4 |
| 20260504193505 | 80 | 186 | 12.0 | 23.0 | 0.00 | 0.00 | 0.00 | 55 | 1010.4 |
| 20260504193406 | 80 | 186 | 12.0 | 23.0 | 0.00 | 0.00 | 0.00 | 55 | 1010.5 |
| 20260504193305 | 80 | 186 | 12.0 | 23.0 | 0.00 | 0.00 | 0.00 | 55 | 1010.5 |
| 20260504193206 | 81 | 185 | 12.0 | 23.0 | 0.00 | 0.00 | 0.00 | 55 | 1010.5 |
| 20260504193105 | 81 | 188 | 11.0 | 20.0 | 0.00 | 0.00 | 0.00 | 56 | 1010.5 |
| 20260504193005 | 81 | 191 | 11.0 | 19.0 | 0.00 | 0.00 | 0.00 | 56 | 1010.6 |
| 20260504192905 | 81 | 194 | 12.0 | 19.0 | 0.00 | 0.00 | 0.00 | 57 | 1010.6 |
| 20260504192805 | 81 | 194 | 12.0 | 20.0 | 0.00 | 0.00 | 0.00 | 57 | 1010.6 |
| 20260504192705 | 81 | 195 | 12.0 | 20.0 | 0.00 | 0.00 | 0.00 | 57 | 1010.7 |
| 20260504192605 | 81 | 192 | 12.0 | 20.0 | 0.00 | 0.00 | 0.00 | 57 | 1010.7 |
| 20260504192505 | 80 | 192 | 11.0 | 20.0 | 0.00 | 0.00 | 0.00 | 57 | 1010.6 |
| 20260504192406 | 80 | 193 | 11.0 | 20.0 | 0.00 | 0.00 | 0.00 | 58 | 1010.6 |
| 20260504192305 | 80 | 194 | 11.0 | 20.0 | 0.00 | 0.00 | 0.00 | 56 | 1010.6 |
| 20260504192106 | 81 | 196 | 11.0 | 20.0 | 0.00 | 0.00 | 0.00 | 56 | 1010.6 |
| 20260504192005 | 81 | 198 | 11.0 | 20.0 | 0.00 | 0.00 | 0.00 | 56 | 1010.7 |
| 20260504191904 | 81 | 198 | 11.0 | 20.0 | 0.00 | 0.00 | 0.00 | 56 | 1010.7 |
| 20260504191805 | 81 | 201 | 11.0 | 18.0 | 0.00 | 0.00 | 0.00 | 56 | 1010.8 |
| 20260504191705 | 81 | 200 | 11.0 | 19.0 | 0.00 | 0.00 | 0.00 | 56 | 1010.8 |
| 20260504191605 | 81 | 204 | 11.0 | 19.0 | 0.00 | 0.00 | 0.00 | 57 | 1010.9 |
| 20260504191405 | 81 | 208 | 11.0 | 21.0 | 0.00 | 0.00 | 0.00 | 57 | 1010.8 |
| 20260504191305 | 81 | 209 | 11.0 | 21.0 | 0.00 | 0.00 | 0.00 | 57 | 1010.9 |
| 20260504191206 | 81 | 211 | 12.0 | 21.0 | 0.00 | 0.00 | 0.00 | 57 | 1010.7 |
| 20260504191105 | 81 | 208 | 12.0 | 21.0 | 0.00 | 0.00 | 0.00 | 57 | 1010.8 |
| 20260504191005 | 80 | 207 | 12.0 | 21.0 | 0.00 | 0.00 | 0.00 | 57 | 1010.8 |
| 20260504190705 | 80 | 202 | 11.0 | 21.0 | 0.00 | 0.00 | 0.00 | 57 | 1010.9 |
| 20260504190605 | 80 | 201 | 11.0 | 21.0 | 0.00 | 0.00 | 0.00 | 57 | 1010.8 |
| 20260504190505 | 80 | 199 | 11.0 | 19.0 | 0.00 | 0.00 | 0.00 | 57 | 1010.9 |
| 20260504190405 | 80 | 197 | 11.0 | 19.0 | 0.00 | 0.00 | 0.00 | 58 | 1010.9 |
| 20260504190305 | 80 | 196 | 11.0 | 19.0 | 0.00 | 0.00 | 0.00 | 56 | 1010.8 |
| 20260504190204 | 80 | 198 | 11.0 | 19.0 | 0.00 | 0.00 | 0.00 | 56 | 1010.9 |
| 20260504190105 | 80 | 200 | 11.0 | 21.0 | 0.00 | 0.00 | 0.00 | 56 | 1010.8 |
| 20260504190005 | 81 | 197 | 11.0 | 21.0 | 0.00 | 0.00 | 0.00 | 56 | 1010.9 |
| 20260504185905 | 80 | 194 | 11.0 | 21.0 | 0.00 | 0.00 | 0.00 | 58 | 1010.9 |
| 20260504185806 | 80 | 195 | 11.0 | 21.0 | 0.00 | 0.00 | 0.00 | 58 | 1010.9 |
| 20260504185705 | 80 | 195 | 11.0 | 21.0 | 0.00 | 0.00 | 0.00 | 58 | 1011.0 |
| 20260504185504 | 80 | 193 | 12.0 | 21.0 | 0.00 | 0.00 | 0.00 | 58 | 1011.1 |
| 20260504185405 | 80 | 193 | 13.0 | 21.0 | 0.00 | 0.00 | 0.00 | 58 | 1011.1 |
| 20260504185305 | 80 | 193 | 12.0 | 21.0 | 0.00 | 0.00 | 0.00 | 57 | 1011.0 |
| 20260504185207 | 80 | 190 | 12.0 | 21.0 | 0.00 | 0.00 | 0.00 | 58 | 1011.0 |
| 20260504185104 | 80 | 189 | 13.0 | 21.0 | 0.00 | 0.00 | 0.00 | 58 | 1010.9 |
| 20260504185005 | 79 | 187 | 12.0 | 21.0 | 0.00 | 0.00 | 0.00 | 58 | 1011.0 |
| 20260504184905 | 79 | 186 | 12.0 | 21.0 | 0.00 | 0.00 | 0.00 | 58 | 1011.0 |
| 20260504184705 | 79 | 186 | 12.0 | 21.0 | 0.00 | 0.00 | 0.00 | 58 | 1011.1 |
| 20260504184607 | 79 | 183 | 12.0 | 21.0 | 0.00 | 0.00 | 0.00 | 58 | 1011.1 |
| 20260504184505 | 79 | 181 | 11.0 | 18.0 | 0.00 | 0.00 | 0.00 | 58 | 1011.1 |
| 20260504184405 | 79 | 181 | 10.0 | 18.0 | 0.00 | 0.00 | 0.00 | 58 | 1011.2 |
| 20260504184305 | 79 | 181 | 10.0 | 18.0 | 0.00 | 0.00 | 0.00 | 58 | 1011.2 |
| 20260504184105 | 79 | 181 | 9.0 | 17.0 | 0.00 | 0.00 | 0.00 | 58 | 1011.0 |
| 20260504183905 | 79 | 187 | 10.0 | 18.0 | 0.00 | 0.00 | 0.00 | 57 | 1011.1 |
| 20260504183804 | 80 | 185 | 10.0 | 19.0 | 0.00 | 0.00 | 0.00 | 57 | 1011.2 |
| 20260504183705 | 80 | 187 | 10.0 | 20.0 | 0.00 | 0.00 | 0.00 | 57 | 1011.1 |
| 20260504183605 | 80 | 190 | 10.0 | 20.0 | 0.00 | 0.00 | 0.00 | 61 | 1011.2 |
| 20260504183506 | 80 | 188 | 11.0 | 20.0 | 0.00 | 0.00 | 0.00 | 61 | 1011.2 |
| 20260504183405 | 80 | 187 | 11.0 | 20.0 | 0.00 | 0.00 | 0.00 | 61 | 1011.2 |
| 20260504183305 | 79 | 184 | 11.0 | 20.0 | 0.00 | 0.00 | 0.00 | 61 | 1011.3 |
| 20260504183204 | 79 | 182 | 11.0 | 20.0 | 0.00 | 0.00 | 0.00 | 60 | 1011.2 |
| 20260504183105 | 78 | 183 | 12.0 | 20.0 | 0.00 | 0.00 | 0.00 | 61 | 1011.3 |
| 20260504183005 | 78 | 182 | 11.0 | 20.0 | 0.00 | 0.00 | 0.00 | 59 | 1011.3 |
| 20260504182705 | 78 | 181 | 11.0 | 18.0 | 0.00 | 0.00 | 0.00 | 60 | 1011.4 |
| 20260504182605 | 78 | 182 | 11.0 | 18.0 | 0.00 | 0.00 | 0.00 | 60 | 1011.4 |
| 20260504182405 | 78 | 184 | 12.0 | 19.0 | 0.00 | 0.00 | 0.00 | 61 | 1011.5 |
| 20260504182204 | 77 | 186 | 12.0 | 19.0 | 0.00 | 0.00 | 0.00 | 61 | 1011.5 |
| 20260504182105 | 77 | 185 | 12.0 | 19.0 | 0.00 | 0.00 | 0.00 | 60 | 1011.6 |
| 20260504182004 | 77 | 188 | 12.0 | 19.0 | 0.00 | 0.00 | 0.00 | 61 | 1011.6 |
| 20260504181908 | 77 | 187 | 12.0 | 20.0 | 0.00 | 0.00 | 0.00 | 61 | 1011.6 |
| 20260504181804 | 77 | 187 | 12.0 | 20.0 | 0.00 | 0.00 | 0.00 | 61 | 1011.5 |
| 20260504181705 | 77 | 189 | 12.0 | 20.0 | 0.00 | 0.00 | 0.00 | 61 | 1011.6 |
| 20260504181505 | 77 | 191 | 12.0 | 21.0 | 0.00 | 0.00 | 0.00 | 61 | 1011.6 |
| 20260504181305 | 78 | 196 | 12.0 | 21.0 | 0.00 | 0.00 | 0.00 | 60 | 1011.7 |
| 20260504181204 | 78 | 200 | 12.0 | 21.0 | 0.00 | 0.00 | 0.00 | 61 | 1011.7 |
| 20260504181106 | 78 | 201 | 11.0 | 21.0 | 0.00 | 0.00 | 0.00 | 61 | 1011.7 |
| 20260504180905 | 78 | 199 | 11.0 | 21.0 | 0.00 | 0.00 | 0.00 | 59 | 1011.7 |
| 20260504180805 | 78 | 201 | 11.0 | 21.0 | 0.00 | 0.00 | 0.00 | 60 | 1011.7 |
| 20260504180705 | 78 | 201 | 10.0 | 21.0 | 0.00 | 0.00 | 0.00 | 59 | 1011.8 |
| 20260504180505 | 78 | 200 | 10.0 | 19.0 | 0.00 | 0.00 | 0.00 | 58 | 1011.8 |
| 20260504180404 | 78 | 194 | 10.0 | 17.0 | 0.00 | 0.00 | 0.00 | 61 | 1011.9 |
| 20260504180205 | 77 | 188 | 10.0 | 17.0 | 0.00 | 0.00 | 0.00 | 61 | 1011.8 |
| 20260504180105 | 77 | 190 | 11.0 | 17.0 | 0.00 | 0.00 | 0.00 | 61 | 1011.8 |
| 20260504180005 | 77 | 192 | 11.0 | 18.0 | 0.00 | 0.00 | 0.00 | 63 | 1011.7 |
| 20260504175905 | 76 | 195 | 11.0 | 18.0 | 0.00 | 0.00 | 0.00 | 62 | 1011.8 |
| 20260504175805 | 76 | 196 | 11.0 | 19.0 | 0.00 | 0.00 | 0.00 | 62 | 1011.8 |
| 20260504175705 | 76 | 198 | 12.0 | 19.0 | 0.00 | 0.00 | 0.00 | 62 | 1011.8 |
| 20260504175605 | 76 | 199 | 13.0 | 19.0 | 0.00 | 0.00 | 0.00 | 62 | 1011.8 |
| 20260504175505 | 76 | 199 | 13.0 | 21.0 | 0.00 | 0.00 | 0.00 | 61 | 1011.8 |
| 20260504175405 | 76 | 201 | 12.0 | 21.0 | 0.00 | 0.00 | 0.00 | 61 | 1011.8 |
| 20260504175304 | 76 | 204 | 12.0 | 21.0 | 0.00 | 0.00 | 0.00 | 61 | 1011.9 |
| 20260504175205 | 76 | 205 | 12.0 | 21.0 | 0.00 | 0.00 | 0.00 | 60 | 1011.9 |
| 20260504175105 | 77 | 203 | 12.0 | 21.0 | 0.00 | 0.00 | 0.00 | 60 | 1011.9 |
| 20260504175005 | 77 | 202 | 12.0 | 21.0 | 0.00 | 0.00 | 0.00 | 60 | 1011.9 |
| 20260504174905 | 77 | 201 | 11.0 | 21.0 | 0.00 | 0.00 | 0.00 | 60 | 1012.0 |
| 20260504174805 | 78 | 200 | 11.0 | 21.0 | 0.00 | 0.00 | 0.00 | 60 | 1011.9 |
| 20260504174705 | 78 | 198 | 11.0 | 21.0 | 0.00 | 0.00 | 0.00 | 60 | 1012.0 |
| 20260504174605 | 78 | 196 | 10.0 | 21.0 | 0.00 | 0.00 | 0.00 | 60 | 1012.1 |
| 20260504174505 | 77 | 196 | 10.0 | 21.0 | 0.00 | 0.00 | 0.00 | 62 | 1012.0 |
| 20260504174404 | 77 | 195 | 10.0 | 19.0 | 0.00 | 0.00 | 0.00 | 62 | 1012.0 |
| 20260504174305 | 76 | 195 | 10.0 | 19.0 | 0.00 | 0.00 | 0.00 | 61 | 1012.0 |
| 20260504174204 | 76 | 197 | 10.0 | 19.0 | 0.00 | 0.00 | 0.00 | 61 | 1012.0 |
| 20260504174105 | 76 | 197 | 10.0 | 19.0 | 0.00 | 0.00 | 0.00 | 62 | 1012.0 |
| 20260504174004 | 76 | 197 | 10.0 | 18.0 | 0.00 | 0.00 | 0.00 | 62 | 1012.0 |
| 20260504173905 | 76 | 195 | 10.0 | 18.0 | 0.00 | 0.00 | 0.00 | 62 | 1012.0 |
| 20260504173805 | 76 | 195 | 10.0 | 18.0 | 0.00 | 0.00 | 0.00 | 63 | 1012.1 |
| 20260504173705 | 76 | 196 | 10.0 | 18.0 | 0.00 | 0.00 | 0.00 | 63 | 1012.1 |
| 20260504173604 | 76 | 197 | 11.0 | 20.0 | 0.00 | 0.00 | 0.00 | 63 | 1012.2 |
| 20260504173405 | 76 | 195 | 12.0 | 20.0 | 0.00 | 0.00 | 0.00 | 62 | 1012.2 |
| 20260504173305 | 76 | 194 | 12.0 | 20.0 | 0.00 | 0.00 | 0.00 | 62 | 1012.2 |
| 20260504173205 | 76 | 192 | 13.0 | 20.0 | 0.00 | 0.00 | 0.00 | 61 | 1012.2 |
| 20260504173105 | 76 | 192 | 12.0 | 21.0 | 0.00 | 0.00 | 0.00 | 61 | 1012.1 |
| 20260504173005 | 77 | 192 | 12.0 | 21.0 | 0.00 | 0.00 | 0.00 | 60 | 1012.2 |
| 20260504172905 | 77 | 194 | 12.0 | 21.0 | 0.00 | 0.00 | 0.00 | 60 | 1012.2 |
| 20260504172605 | 78 | 199 | 11.0 | 21.0 | 0.00 | 0.00 | 0.00 | 59 | 1012.2 |
| 20260504172305 | 78 | 204 | 10.0 | 21.0 | 0.00 | 0.00 | 0.00 | 60 | 1012.3 |
| 20260504172105 | 77 | 204 | 10.0 | 17.0 | 0.00 | 0.00 | 0.00 | 62 | 1012.3 |
| 20260504172004 | 76 | 203 | 10.0 | 18.0 | 0.00 | 0.00 | 0.00 | 62 | 1012.2 |
| 20260504171905 | 76 | 204 | 10.0 | 19.0 | 0.00 | 0.00 | 0.00 | 62 | 1012.3 |
| 20260504171706 | 76 | 201 | 10.0 | 19.0 | 0.00 | 0.00 | 0.00 | 61 | 1012.3 |
| 20260504171506 | 76 | 200 | 10.0 | 19.0 | 0.00 | 0.00 | 0.00 | 59 | 1012.3 |
| 20260504171405 | 77 | 200 | 10.0 | 19.0 | 0.00 | 0.00 | 0.00 | 59 | 1012.4 |
| 20260504171305 | 77 | 201 | 10.0 | 19.0 | 0.00 | 0.00 | 0.00 | 59 | 1012.4 |
| 20260504171205 | 78 | 201 | 10.0 | 19.0 | 0.00 | 0.00 | 0.00 | 60 | 1012.5 |
| 20260504171104 | 78 | 204 | 10.0 | 19.0 | 0.00 | 0.00 | 0.00 | 60 | 1012.5 |
| 20260504171005 | 78 | 205 | 10.0 | 19.0 | 0.00 | 0.00 | 0.00 | 59 | 1012.5 |
| 20260504170904 | 78 | 204 | 11.0 | 22.0 | 0.00 | 0.00 | 0.00 | 60 | 1012.4 |
| 20260504170805 | 77 | 203 | 11.0 | 22.0 | 0.00 | 0.00 | 0.00 | 60 | 1012.4 |
| 20260504170705 | 78 | 201 | 11.0 | 22.0 | 0.00 | 0.00 | 0.00 | 60 | 1012.4 |
| 20260504170605 | 77 | 200 | 12.0 | 22.0 | 0.00 | 0.00 | 0.00 | 61 | 1012.4 |
| 20260504170506 | 77 | 200 | 12.0 | 22.0 | 0.00 | 0.00 | 0.00 | 61 | 1012.5 |
| 20260504170405 | 76 | 201 | 12.0 | 22.0 | 0.00 | 0.00 | 0.00 | 62 | 1012.5 |
| 20260504170305 | 76 | 202 | 11.0 | 22.0 | 0.00 | 0.00 | 0.00 | 61 | 1012.6 |
| 20260504170205 | 76 | 203 | 11.0 | 22.0 | 0.00 | 0.00 | 0.00 | 61 | 1012.6 |
| 20260504170106 | 76 | 201 | 11.0 | 22.0 | 0.00 | 0.00 | 0.00 | 61 | 1012.5 |
| 20260504160405 | 74 | 191 | 12.0 | 23.0 | 0.00 | 0.00 | 0.00 | 62 | 1013.0 |
| 20260504160205 | 74 | 187 | 12.0 | 23.0 | 0.00 | 0.00 | 0.00 | 63 | 1013.1 |
| 20260504160104 | 74 | 187 | 11.0 | 23.0 | 0.00 | 0.00 | 0.00 | 62 | 1013.1 |
| 20260504151105 | 72 | 177 | 12.0 | 21.0 | 0.00 | 0.00 | 0.00 | 67 | 1013.5 |
| 20260504151006 | 72 | 176 | 13.0 | 21.0 | 0.00 | 0.00 | 0.00 | 68 | 1013.4 |
| 20260504150805 | 71 | 173 | 14.0 | 22.0 | 0.00 | 0.00 | 0.00 | 68 | 1013.4 |
| 20260504150704 | 71 | 173 | 14.0 | 22.0 | 0.00 | 0.00 | 0.00 | 67 | 1013.3 |
| 20260504150605 | 71 | 173 | 14.0 | 22.0 | 0.00 | 0.00 | 0.00 | 67 | 1013.3 |
| 20260504150504 | 71 | 173 | 14.0 | 22.0 | 0.00 | 0.00 | 0.00 | 67 | 1013.3 |
| 20260504150405 | 71 | 176 | 13.0 | 22.0 | 0.00 | 0.00 | 0.00 | 68 | 1013.3 |
| 20260504150304 | 71 | 177 | 13.0 | 22.0 | 0.00 | 0.00 | 0.00 | 68 | 1013.3 |
| 20260504150205 | 71 | 182 | 13.0 | 22.0 | 0.00 | 0.00 | 0.00 | 68 | 1013.3 |
| 20260504150105 | 70 | 179 | 13.0 | 23.0 | 0.00 | 0.00 | 0.00 | 67 | 1013.3 |
| 20260504141304 | 67 | 187 | 12.0 | 18.0 | 0.00 | 0.00 | 0.00 | 72 | 1013.5 |
| 20260504141204 | 67 | 186 | 12.0 | 18.0 | 0.00 | 0.00 | 0.00 | 72 | 1013.5 |
| 20260504141105 | 67 | 185 | 12.0 | 18.0 | 0.00 | 0.00 | 0.00 | 72 | 1013.5 |
| 20260504141005 | 67 | 185 | 12.0 | 18.0 | 0.00 | 0.00 | 0.00 | 73 | 1013.5 |
| 20260504140904 | 67 | 186 | 12.0 | 18.0 | 0.00 | 0.00 | 0.00 | 73 | 1013.4 |
| 20260504140805 | 67 | 185 | 11.0 | 18.0 | 0.00 | 0.00 | 0.00 | 73 | 1013.5 |
| 20260504140705 | 67 | 184 | 11.0 | 18.0 | 0.00 | 0.00 | 0.00 | 73 | 1013.4 |
| 20260504140505 | 67 | 181 | 11.0 | 18.0 | 0.00 | 0.00 | 0.00 | 73 | 1013.4 |
| 20260504140404 | 67 | 182 | 11.0 | 18.0 | 0.00 | 0.00 | 0.00 | 73 | 1013.4 |
| 20260504140305 | 66 | 183 | 10.0 | 18.0 | 0.00 | 0.00 | 0.00 | 73 | 1013.3 |
| 20260504130804 | 61 | 153 | 4.0 | 9.0 | 0.00 | 0.00 | 0.00 | 82 | 1013.6 |
| 20260504130705 | 61 | 154 | 5.0 | 9.0 | 0.00 | 0.00 | 0.00 | 81 | 1013.6 |
| 20260504130505 | 61 | 153 | 5.0 | 9.0 | 0.00 | 0.00 | 0.00 | 82 | 1013.6 |
| 20260504130404 | 61 | 155 | 5.0 | 9.0 | 0.00 | 0.00 | 0.00 | 82 | 1013.6 |
| 20260504130304 | 61 | 155 | 5.0 | 9.0 | 0.00 | 0.00 | 0.00 | 82 | 1013.6 |
| 20260504130104 | 61 | 156 | 4.0 | 8.0 | 0.00 | 0.00 | 0.00 | 82 | 1013.5 |
| 20260504120304 | 56 | 160 | 3.0 | 6.0 | 0.00 | 0.00 | 0.00 | 87 | 1013.0 |
| 20260504120204 | 56 | 160 | 3.0 | 6.0 | 0.00 | 0.00 | 0.00 | 87 | 1013.1 |
| 20260504120104 | 56 | 160 | 3.0 | 6.0 | 0.00 | 0.00 | 0.00 | 87 | 1013.0 |
| 20260504110704 | 56 | 154 | 0.0 | 2.0 | 0.00 | 0.00 | 0.00 | 85 | 1013.2 |
| 20260504110604 | 56 | 154 | 0.0 | 2.0 | 0.00 | 0.00 | 0.00 | 85 | 1013.2 |
| 20260504110504 | 56 | 154 | 0.0 | 1.0 | 0.00 | 0.00 | 0.00 | 85 | 1013.2 |
| 20260504110404 | 57 | 154 | 0.0 | 1.0 | 0.00 | 0.00 | 0.00 | 85 | 1013.2 |
| 20260504110304 | 57 | 0 | 0.0 | 0.0 | 0.00 | 0.00 | 0.00 | 85 | 1013.2 |
| 20260504110204 | 57 | 154 | 0.0 | 1.0 | 0.00 | 0.00 | 0.00 | 85 | 1013.1 |
| 20260504110104 | 57 | 154 | 0.0 | 3.0 | 0.00 | 0.00 | 0.00 | 85 | 1013.1 |
| 20260504100604 | 58 | 169 | 1.0 | 3.0 | 0.00 | 0.00 | 0.00 | 82 | 1013.6 |
| 20260504100504 | 58 | 166 | 1.0 | 3.0 | 0.00 | 0.00 | 0.00 | 82 | 1013.6 |
| 20260504100405 | 58 | 164 | 1.0 | 3.0 | 0.00 | 0.00 | 0.00 | 82 | 1013.6 |
| 20260504100204 | 58 | 160 | 2.0 | 6.0 | 0.00 | 0.00 | 0.00 | 82 | 1013.6 |
| 20260504100103 | 58 | 158 | 2.0 | 6.0 | 0.00 | 0.00 | 0.00 | 82 | 1013.6 |
| 20260504090104 | 60 | 157 | 2.0 | 4.0 | 0.00 | 0.00 | 0.00 | 79 | 1013.7 |
| 20260504081904 | 60 | 155 | 4.0 | 7.0 | 0.00 | 0.00 | 0.00 | 77 | 1013.7 |
| 20260504081804 | 60 | 154 | 4.0 | 7.0 | 0.00 | 0.00 | 0.00 | 77 | 1013.7 |
| 20260504081704 | 60 | 152 | 3.0 | 7.0 | 0.00 | 0.00 | 0.00 | 77 | 1013.7 |
| 20260504081405 | 60 | 151 | 3.0 | 8.0 | 0.00 | 0.00 | 0.00 | 76 | 1013.6 |
| 20260504081304 | 60 | 150 | 3.0 | 8.0 | 0.00 | 0.00 | 0.00 | 76 | 1013.6 |
| 20260504081204 | 60 | 150 | 3.0 | 8.0 | 0.00 | 0.00 | 0.00 | 76 | 1013.7 |
| 20260504081104 | 60 | 151 | 3.0 | 8.0 | 0.00 | 0.00 | 0.00 | 76 | 1013.7 |
| 20260504081004 | 60 | 151 | 3.0 | 8.0 | 0.00 | 0.00 | 0.00 | 76 | 1013.7 |
| 20260504080704 | 60 | 149 | 3.0 | 8.0 | 0.00 | 0.00 | 0.00 | 76 | 1013.7 |
| 20260504080604 | 60 | 148 | 3.0 | 8.0 | 0.00 | 0.00 | 0.00 | 76 | 1013.6 |
| 20260504080504 | 60 | 148 | 3.0 | 8.0 | 0.00 | 0.00 | 0.00 | 76 | 1013.6 |
| 20260504080405 | 60 | 148 | 3.0 | 7.0 | 0.00 | 0.00 | 0.00 | 76 | 1013.7 |
| 20260504080304 | 60 | 148 | 3.0 | 7.0 | 0.00 | 0.00 | 0.00 | 76 | 1013.7 |
| 20260504080204 | 60 | 148 | 3.0 | 7.0 | 0.00 | 0.00 | 0.00 | 76 | 1013.7 |
| 20260504070405 | 62 | 160 | 3.0 | 7.0 | 0.00 | 0.00 | 0.00 | 72 | 1014.7 |
| 20260504070303 | 62 | 161 | 4.0 | 7.0 | 0.00 | 0.00 | 0.00 | 72 | 1014.7 |
| 20260504070204 | 62 | 163 | 4.0 | 8.0 | 0.00 | 0.00 | 0.00 | 72 | 1014.7 |
| 20260504070105 | 62 | 163 | 4.0 | 8.0 | 0.00 | 0.00 | 0.00 | 72 | 1014.8 |
| 20260504060104 | 63 | 169 | 6.0 | 10.0 | 0.00 | 0.00 | 0.00 | 68 | 1015.6 |
| 20260504050604 | 64 | 160 | 5.0 | 10.0 | 0.00 | 0.00 | 0.00 | 64 | 1015.6 |
| 20260504050504 | 64 | 161 | 5.0 | 10.0 | 0.00 | 0.00 | 0.00 | 64 | 1015.6 |
| 20260504050403 | 64 | 162 | 6.0 | 10.0 | 0.00 | 0.00 | 0.00 | 64 | 1015.6 |
| 20260504050304 | 64 | 161 | 5.0 | 10.0 | 0.00 | 0.00 | 0.00 | 64 | 1015.6 |
| 20260504050204 | 64 | 159 | 6.0 | 10.0 | 0.00 | 0.00 | 0.00 | 64 | 1015.6 |
| 20260504050103 | 64 | 158 | 6.0 | 10.0 | 0.00 | 0.00 | 0.00 | 64 | 1015.6 |
| 20260504050005 | 64 | 157 | 6.0 | 10.0 | 0.00 | 0.00 | 0.00 | 64 | 1015.6 |
| 20260504045903 | 64 | 158 | 6.0 | 10.0 | 0.00 | 0.00 | 0.00 | 64 | 1015.7 |
| 20260504045804 | 64 | 157 | 6.0 | 10.0 | 0.00 | 0.00 | 0.00 | 64 | 1015.6 |
| 20260504045704 | 64 | 158 | 6.0 | 10.0 | 0.00 | 0.00 | 0.00 | 64 | 1015.7 |
| 20260504045604 | 63 | 157 | 5.0 | 10.0 | 0.00 | 0.00 | 0.00 | 63 | 1015.6 |
| 20260504045503 | 63 | 156 | 5.0 | 10.0 | 0.00 | 0.00 | 0.00 | 63 | 1015.6 |
| 20260504045404 | 63 | 155 | 5.0 | 10.0 | 0.00 | 0.00 | 0.00 | 64 | 1015.6 |
| 20260504045204 | 63 | 157 | 4.0 | 10.0 | 0.00 | 0.00 | 0.00 | 63 | 1015.7 |
| 20260504045104 | 63 | 157 | 4.0 | 10.0 | 0.00 | 0.00 | 0.00 | 63 | 1015.7 |
| 20260504044903 | 63 | 156 | 4.0 | 8.0 | 0.00 | 0.00 | 0.00 | 64 | 1015.8 |
| 20260504044804 | 63 | 156 | 4.0 | 8.0 | 0.00 | 0.00 | 0.00 | 64 | 1015.8 |
| 20260504044704 | 63 | 156 | 4.0 | 8.0 | 0.00 | 0.00 | 0.00 | 64 | 1015.8 |
| 20260504044604 | 63 | 156 | 4.0 | 8.0 | 0.00 | 0.00 | 0.00 | 64 | 1015.8 |
| 20260504044504 | 63 | 158 | 4.0 | 8.0 | 0.00 | 0.00 | 0.00 | 64 | 1015.7 |
| 20260504044204 | 63 | 157 | 4.0 | 8.0 | 0.00 | 0.00 | 0.00 | 63 | 1015.7 |
| 20260504044004 | 63 | 157 | 4.0 | 8.0 | 0.00 | 0.00 | 0.00 | 63 | 1015.8 |
| 20260504043703 | 63 | 161 | 4.0 | 8.0 | 0.00 | 0.00 | 0.00 | 64 | 1015.7 |
| 20260504043604 | 63 | 162 | 4.0 | 8.0 | 0.00 | 0.00 | 0.00 | 63 | 1015.8 |
| 20260504043404 | 63 | 162 | 4.0 | 8.0 | 0.00 | 0.00 | 0.00 | 63 | 1015.8 |
| 20260504043303 | 63 | 164 | 4.0 | 8.0 | 0.00 | 0.00 | 0.00 | 64 | 1015.9 |
| 20260504043205 | 63 | 165 | 4.0 | 8.0 | 0.00 | 0.00 | 0.00 | 64 | 1015.9 |
| 20260504043103 | 63 | 166 | 4.0 | 8.0 | 0.00 | 0.00 | 0.00 | 64 | 1015.9 |
| 20260504043004 | 63 | 166 | 3.0 | 8.0 | 0.00 | 0.00 | 0.00 | 64 | 1015.9 |
| 20260504042903 | 63 | 166 | 3.0 | 7.0 | 0.00 | 0.00 | 0.00 | 64 | 1015.9 |
| 20260504042804 | 63 | 164 | 3.0 | 7.0 | 0.00 | 0.00 | 0.00 | 64 | 1015.9 |
| 20260504042704 | 63 | 164 | 3.0 | 7.0 | 0.00 | 0.00 | 0.00 | 64 | 1015.9 |
| 20260504042604 | 63 | 163 | 3.0 | 7.0 | 0.00 | 0.00 | 0.00 | 64 | 1015.9 |
| 20260504042504 | 63 | 163 | 3.0 | 6.0 | 0.00 | 0.00 | 0.00 | 64 | 1015.9 |
| 20260504042404 | 63 | 163 | 3.0 | 6.0 | 0.00 | 0.00 | 0.00 | 64 | 1015.9 |
| 20260504042304 | 63 | 163 | 3.0 | 6.0 | 0.00 | 0.00 | 0.00 | 64 | 1015.9 |
| 20260504042203 | 63 | 163 | 3.0 | 6.0 | 0.00 | 0.00 | 0.00 | 64 | 1015.9 |
| 20260504042104 | 63 | 163 | 3.0 | 6.0 | 0.00 | 0.00 | 0.00 | 64 | 1015.9 |
| 20260504041904 | 63 | 163 | 3.0 | 6.0 | 0.00 | 0.00 | 0.00 | 64 | 1016.0 |
| 20260504041804 | 63 | 166 | 3.0 | 6.0 | 0.00 | 0.00 | 0.00 | 64 | 1016.0 |
| 20260504041704 | 63 | 167 | 3.0 | 6.0 | 0.00 | 0.00 | 0.00 | 64 | 1016.0 |
| 20260504041603 | 63 | 167 | 3.0 | 6.0 | 0.00 | 0.00 | 0.00 | 64 | 1016.0 |
| 20260504041404 | 63 | 167 | 3.0 | 6.0 | 0.00 | 0.00 | 0.00 | 64 | 1016.1 |
| 20260504041303 | 63 | 166 | 2.0 | 6.0 | 0.00 | 0.00 | 0.00 | 64 | 1016.1 |
| 20260504041204 | 63 | 166 | 3.0 | 6.0 | 0.00 | 0.00 | 0.00 | 64 | 1016.2 |
| 20260504041103 | 63 | 167 | 2.0 | 6.0 | 0.00 | 0.00 | 0.00 | 64 | 1016.1 |
| 20260504041004 | 63 | 168 | 3.0 | 6.0 | 0.00 | 0.00 | 0.00 | 64 | 1016.1 |
| 20260504040904 | 63 | 168 | 3.0 | 6.0 | 0.00 | 0.00 | 0.00 | 64 | 1016.1 |
| 20260504040805 | 63 | 167 | 3.0 | 5.0 | 0.00 | 0.00 | 0.00 | 64 | 1016.1 |
| 20260504040703 | 63 | 167 | 3.0 | 5.0 | 0.00 | 0.00 | 0.00 | 64 | 1016.1 |
| 20260504040504 | 63 | 169 | 3.0 | 6.0 | 0.00 | 0.00 | 0.00 | 64 | 1016.1 |
| 20260504040404 | 63 | 171 | 3.0 | 6.0 | 0.00 | 0.00 | 0.00 | 64 | 1016.1 |
| 20260504040304 | 63 | 172 | 3.0 | 6.0 | 0.00 | 0.00 | 0.00 | 64 | 1016.1 |
| 20260504040204 | 63 | 173 | 3.0 | 6.0 | 0.00 | 0.00 | 0.00 | 64 | 1016.0 |
| 20260504040004 | 63 | 174 | 3.0 | 6.0 | 0.00 | 0.00 | 0.00 | 64 | 1016.1 |
| 20260504035904 | 63 | 174 | 3.0 | 6.0 | 0.00 | 0.00 | 0.00 | 64 | 1016.1 |
| 20260504035803 | 63 | 175 | 3.0 | 6.0 | 0.00 | 0.00 | 0.00 | 64 | 1016.1 |
| 20260504035704 | 63 | 176 | 3.0 | 6.0 | 0.00 | 0.00 | 0.00 | 64 | 1016.1 |
| 20260504035604 | 63 | 176 | 2.0 | 6.0 | 0.00 | 0.00 | 0.00 | 64 | 1016.1 |
| 20260504035503 | 63 | 177 | 2.0 | 4.0 | 0.00 | 0.00 | 0.00 | 64 | 1016.1 |
| 20260504035404 | 63 | 177 | 2.0 | 4.0 | 0.00 | 0.00 | 0.00 | 64 | 1016.1 |
| 20260504035304 | 63 | 176 | 2.0 | 4.0 | 0.00 | 0.00 | 0.00 | 64 | 1016.0 |
| 20260504035204 | 63 | 176 | 2.0 | 4.0 | 0.00 | 0.00 | 0.00 | 64 | 1016.1 |
| 20260504035103 | 63 | 176 | 2.0 | 4.0 | 0.00 | 0.00 | 0.00 | 63 | 1016.1 |
| 20260504035004 | 63 | 176 | 3.0 | 4.0 | 0.00 | 0.00 | 0.00 | 63 | 1016.1 |
| 20260504034903 | 64 | 176 | 3.0 | 4.0 | 0.00 | 0.00 | 0.00 | 63 | 1016.1 |
| 20260504034705 | 64 | 176 | 3.0 | 4.0 | 0.00 | 0.00 | 0.00 | 63 | 1016.1 |
| 20260504034604 | 64 | 176 | 3.0 | 4.0 | 0.00 | 0.00 | 0.00 | 63 | 1016.1 |
| 20260504034504 | 64 | 175 | 3.0 | 4.0 | 0.00 | 0.00 | 0.00 | 63 | 1016.0 |
| 20260504034404 | 64 | 175 | 3.0 | 6.0 | 0.00 | 0.00 | 0.00 | 63 | 1016.0 |
| 20260504034304 | 64 | 175 | 3.0 | 6.0 | 0.00 | 0.00 | 0.00 | 63 | 1016.0 |
| 20260504034203 | 64 | 173 | 3.0 | 6.0 | 0.00 | 0.00 | 0.00 | 63 | 1016.0 |
| 20260504034104 | 64 | 172 | 3.0 | 6.0 | 0.00 | 0.00 | 0.00 | 63 | 1016.1 |
| 20260504033903 | 64 | 169 | 3.0 | 6.0 | 0.00 | 0.00 | 0.00 | 62 | 1016.0 |
| 20260504033804 | 64 | 168 | 3.0 | 6.0 | 0.00 | 0.00 | 0.00 | 62 | 1016.1 |
| 20260504033704 | 64 | 168 | 3.0 | 6.0 | 0.00 | 0.00 | 0.00 | 62 | 1016.0 |
| 20260504033604 | 64 | 166 | 3.0 | 6.0 | 0.00 | 0.00 | 0.00 | 62 | 1016.1 |
| 20260504033503 | 64 | 167 | 3.0 | 6.0 | 0.00 | 0.00 | 0.00 | 62 | 1016.0 |
| 20260504033404 | 64 | 168 | 3.0 | 6.0 | 0.00 | 0.00 | 0.00 | 62 | 1016.1 |
| 20260504033204 | 64 | 168 | 3.0 | 6.0 | 0.00 | 0.00 | 0.00 | 62 | 1016.1 |
| 20260504033104 | 64 | 169 | 3.0 | 6.0 | 0.00 | 0.00 | 0.00 | 62 | 1016.1 |
| 20260504033004 | 64 | 170 | 3.0 | 6.0 | 0.00 | 0.00 | 0.00 | 62 | 1016.2 |
| 20260504032903 | 64 | 171 | 3.0 | 6.0 | 0.00 | 0.00 | 0.00 | 62 | 1016.1 |
| 20260504032804 | 64 | 171 | 3.0 | 6.0 | 0.00 | 0.00 | 0.00 | 62 | 1016.1 |
| 20260504032706 | 64 | 172 | 3.0 | 6.0 | 0.00 | 0.00 | 0.00 | 62 | 1016.1 |
| 20260504032603 | 64 | 172 | 3.0 | 6.0 | 0.00 | 0.00 | 0.00 | 62 | 1016.1 |
| 20260504032503 | 64 | 174 | 3.0 | 6.0 | 0.00 | 0.00 | 0.00 | 62 | 1016.1 |
| 20260504032404 | 64 | 174 | 3.0 | 6.0 | 0.00 | 0.00 | 0.00 | 62 | 1016.0 |
| 20260504032304 | 64 | 175 | 3.0 | 6.0 | 0.00 | 0.00 | 0.00 | 62 | 1016.0 |
| 20260504032204 | 64 | 176 | 2.0 | 6.0 | 0.00 | 0.00 | 0.00 | 62 | 1016.0 |
| 20260504032103 | 64 | 178 | 2.0 | 6.0 | 0.00 | 0.00 | 0.00 | 62 | 1016.0 |
| 20260504032005 | 64 | 179 | 2.0 | 5.0 | 0.00 | 0.00 | 0.00 | 62 | 1016.1 |
| 20260504031904 | 64 | 183 | 2.0 | 5.0 | 0.00 | 0.00 | 0.00 | 62 | 1016.1 |
| 20260504031805 | 64 | 183 | 2.0 | 5.0 | 0.00 | 0.00 | 0.00 | 62 | 1016.1 |
| 20260504031703 | 64 | 183 | 2.0 | 5.0 | 0.00 | 0.00 | 0.00 | 62 | 1016.1 |
| 20260504031504 | 64 | 183 | 2.0 | 4.0 | 0.00 | 0.00 | 0.00 | 62 | 1016.1 |
| 20260504031304 | 64 | 184 | 3.0 | 7.0 | 0.00 | 0.00 | 0.00 | 62 | 1016.0 |
| 20260504031204 | 64 | 185 | 3.0 | 7.0 | 0.00 | 0.00 | 0.00 | 62 | 1016.0 |
| 20260504031104 | 64 | 186 | 3.0 | 7.0 | 0.00 | 0.00 | 0.00 | 61 | 1016.0 |
| 20260504031004 | 64 | 186 | 3.0 | 7.0 | 0.00 | 0.00 | 0.00 | 61 | 1016.0 |
| 20260504030904 | 64 | 186 | 2.0 | 7.0 | 0.00 | 0.00 | 0.00 | 61 | 1016.0 |
| 20260504030803 | 64 | 187 | 2.0 | 7.0 | 0.00 | 0.00 | 0.00 | 61 | 1016.0 |
| 20260504030704 | 64 | 188 | 2.0 | 7.0 | 0.00 | 0.00 | 0.00 | 61 | 1016.0 |
| 20260504030604 | 65 | 188 | 2.0 | 7.0 | 0.00 | 0.00 | 0.00 | 61 | 1016.0 |
| 20260504030503 | 64 | 189 | 2.0 | 7.0 | 0.00 | 0.00 | 0.00 | 61 | 1016.1 |
| 20260504030404 | 64 | 189 | 2.0 | 4.0 | 0.00 | 0.00 | 0.00 | 61 | 1016.0 |
| 20260504030303 | 64 | 188 | 2.0 | 4.0 | 0.00 | 0.00 | 0.00 | 61 | 1016.1 |
| 20260504030204 | 64 | 186 | 2.0 | 4.0 | 0.00 | 0.00 | 0.00 | 61 | 1016.1 |
| 20260504030004 | 64 | 179 | 2.0 | 4.0 | 0.00 | 0.00 | 0.00 | 61 | 1016.1 |
| 20260504025903 | 65 | 176 | 2.0 | 4.0 | 0.00 | 0.00 | 0.00 | 61 | 1016.1 |
| 20260504025804 | 65 | 174 | 3.0 | 4.0 | 0.00 | 0.00 | 0.00 | 61 | 1016.1 |
| 20260504025706 | 65 | 174 | 3.0 | 5.0 | 0.00 | 0.00 | 0.00 | 61 | 1016.0 |
| 20260504025603 | 65 | 173 | 3.0 | 5.0 | 0.00 | 0.00 | 0.00 | 61 | 1016.1 |
| 20260504025504 | 65 | 171 | 3.0 | 5.0 | 0.00 | 0.00 | 0.00 | 60 | 1016.0 |
| 20260504025304 | 65 | 171 | 3.0 | 5.0 | 0.00 | 0.00 | 0.00 | 60 | 1016.1 |
| 20260504025204 | 65 | 170 | 3.0 | 5.0 | 0.00 | 0.00 | 0.00 | 60 | 1016.1 |
| 20260504025104 | 65 | 171 | 3.0 | 5.0 | 0.00 | 0.00 | 0.00 | 60 | 1016.1 |
| 20260504025003 | 65 | 171 | 2.0 | 5.0 | 0.00 | 0.00 | 0.00 | 60 | 1016.1 |
| 20260504024904 | 65 | 172 | 2.0 | 5.0 | 0.00 | 0.00 | 0.00 | 60 | 1016.1 |
| 20260504024803 | 65 | 172 | 2.0 | 5.0 | 0.00 | 0.00 | 0.00 | 60 | 1016.1 |
| 20260504024704 | 65 | 173 | 2.0 | 4.0 | 0.00 | 0.00 | 0.00 | 60 | 1016.1 |
| 20260504024603 | 65 | 171 | 2.0 | 4.0 | 0.00 | 0.00 | 0.00 | 60 | 1016.1 |
| 20260504024505 | 65 | 172 | 2.0 | 3.0 | 0.00 | 0.00 | 0.00 | 60 | 1016.1 |
| 20260504024404 | 65 | 170 | 2.0 | 4.0 | 0.00 | 0.00 | 0.00 | 60 | 1016.1 |
| 20260504024303 | 65 | 168 | 2.0 | 4.0 | 0.00 | 0.00 | 0.00 | 59 | 1016.1 |
| 20260504024104 | 66 | 165 | 2.0 | 4.0 | 0.00 | 0.00 | 0.00 | 59 | 1016.1 |
| 20260504023804 | 66 | 163 | 2.0 | 4.0 | 0.00 | 0.00 | 0.00 | 59 | 1016.0 |
| 20260504023603 | 66 | 162 | 2.0 | 4.0 | 0.00 | 0.00 | 0.00 | 58 | 1016.0 |
| 20260504023504 | 66 | 161 | 2.0 | 4.0 | 0.00 | 0.00 | 0.00 | 58 | 1015.9 |
| 20260504023403 | 66 | 162 | 2.0 | 4.0 | 0.00 | 0.00 | 0.00 | 58 | 1016.0 |
| 20260504023303 | 66 | 164 | 2.0 | 4.0 | 0.00 | 0.00 | 0.00 | 58 | 1015.9 |
| 20260504023204 | 66 | 166 | 2.0 | 6.0 | 0.00 | 0.00 | 0.00 | 58 | 1015.9 |
| 20260504023105 | 66 | 167 | 3.0 | 6.0 | 0.00 | 0.00 | 0.00 | 58 | 1015.9 |
| 20260504022903 | 66 | 168 | 3.0 | 6.0 | 0.00 | 0.00 | 0.00 | 57 | 1016.0 |
| 20260504022804 | 66 | 168 | 3.0 | 6.0 | 0.00 | 0.00 | 0.00 | 57 | 1016.0 |
| 20260504022703 | 66 | 169 | 3.0 | 6.0 | 0.00 | 0.00 | 0.00 | 57 | 1016.0 |
| 20260504022604 | 66 | 168 | 3.0 | 6.0 | 0.00 | 0.00 | 0.00 | 57 | 1016.0 |
| 20260504022503 | 66 | 169 | 3.0 | 6.0 | 0.00 | 0.00 | 0.00 | 57 | 1015.9 |
| 20260504022404 | 66 | 169 | 3.0 | 6.0 | 0.00 | 0.00 | 0.00 | 57 | 1015.9 |
| 20260504022304 | 66 | 168 | 3.0 | 6.0 | 0.00 | 0.00 | 0.00 | 57 | 1015.9 |
| 20260504022203 | 66 | 168 | 3.0 | 7.0 | 0.00 | 0.00 | 0.00 | 57 | 1016.0 |
| 20260504022104 | 67 | 167 | 3.0 | 7.0 | 0.00 | 0.00 | 0.00 | 57 | 1015.9 |
| 20260504022006 | 67 | 166 | 3.0 | 7.0 | 0.00 | 0.00 | 0.00 | 57 | 1016.0 |
| 20260504021905 | 67 | 165 | 3.0 | 7.0 | 0.00 | 0.00 | 0.00 | 57 | 1015.9 |
| 20260504021806 | 67 | 165 | 3.0 | 7.0 | 0.00 | 0.00 | 0.00 | 56 | 1016.0 |
| 20260504021705 | 67 | 164 | 3.0 | 7.0 | 0.00 | 0.00 | 0.00 | 56 | 1015.9 |
| 20260504021605 | 67 | 165 | 3.0 | 7.0 | 0.00 | 0.00 | 0.00 | 56 | 1015.9 |
| 20260504021505 | 67 | 165 | 2.0 | 7.0 | 0.00 | 0.00 | 0.00 | 56 | 1015.9 |
| 20260504021405 | 67 | 164 | 2.0 | 7.0 | 0.00 | 0.00 | 0.00 | 56 | 1015.9 |
| 20260504021306 | 67 | 164 | 2.0 | 7.0 | 0.00 | 0.00 | 0.00 | 56 | 1015.8 |
| 20260504021205 | 67 | 164 | 2.0 | 4.0 | 0.00 | 0.00 | 0.00 | 56 | 1015.8 |
| 20260504021105 | 67 | 164 | 2.0 | 4.0 | 0.00 | 0.00 | 0.00 | 56 | 1015.8 |
| 20260504021005 | 67 | 165 | 2.0 | 4.0 | 0.00 | 0.00 | 0.00 | 56 | 1015.8 |
| 20260504020805 | 67 | 165 | 2.0 | 4.0 | 0.00 | 0.00 | 0.00 | 56 | 1015.8 |
| 20260504020705 | 67 | 164 | 2.0 | 4.0 | 0.00 | 0.00 | 0.00 | 56 | 1015.8 |
| 20260504020605 | 67 | 163 | 2.0 | 4.0 | 0.00 | 0.00 | 0.00 | 56 | 1015.7 |
| 20260504020506 | 67 | 163 | 2.0 | 4.0 | 0.00 | 0.00 | 0.00 | 56 | 1015.7 |
| 20260504020405 | 67 | 163 | 2.0 | 4.0 | 0.00 | 0.00 | 0.00 | 56 | 1015.7 |
| 20260504020305 | 67 | 163 | 3.0 | 4.0 | 0.00 | 0.00 | 0.00 | 56 | 1015.7 |
| 20260504020205 | 67 | 162 | 2.0 | 4.0 | 0.00 | 0.00 | 0.00 | 56 | 1015.7 |
| 20260504020106 | 67 | 162 | 2.0 | 4.0 | 0.00 | 0.00 | 0.00 | 56 | 1015.7 |
| 20260504020006 | 67 | 163 | 2.0 | 4.0 | 0.00 | 0.00 | 0.00 | 55 | 1015.7 |
| 20260504015905 | 67 | 162 | 2.0 | 4.0 | 0.00 | 0.00 | 0.00 | 55 | 1015.7 |
| 20260504015806 | 67 | 163 | 2.0 | 4.0 | 0.00 | 0.00 | 0.00 | 55 | 1015.7 |
| 20260504015705 | 67 | 163 | 2.0 | 4.0 | 0.00 | 0.00 | 0.00 | 56 | 1015.7 |
| 20260504015605 | 67 | 164 | 2.0 | 4.0 | 0.00 | 0.00 | 0.00 | 56 | 1015.7 |
| 20260504015505 | 67 | 164 | 2.0 | 4.0 | 0.00 | 0.00 | 0.00 | 55 | 1015.7 |
| 20260504015406 | 67 | 164 | 2.0 | 4.0 | 0.00 | 0.00 | 0.00 | 55 | 1015.6 |
| 20260504015305 | 67 | 165 | 3.0 | 4.0 | 0.00 | 0.00 | 0.00 | 55 | 1015.6 |
| 20260504015206 | 68 | 166 | 3.0 | 6.0 | 0.00 | 0.00 | 0.00 | 55 | 1015.6 |
| 20260504015006 | 68 | 166 | 3.0 | 6.0 | 0.00 | 0.00 | 0.00 | 55 | 1015.5 |
| 20260504014905 | 68 | 167 | 3.0 | 6.0 | 0.00 | 0.00 | 0.00 | 55 | 1015.5 |
| 20260504014805 | 68 | 168 | 3.0 | 6.0 | 0.00 | 0.00 | 0.00 | 55 | 1015.5 |
| 20260504014706 | 68 | 169 | 3.0 | 6.0 | 0.00 | 0.00 | 0.00 | 55 | 1015.6 |
| 20260504014606 | 68 | 167 | 2.0 | 6.0 | 0.00 | 0.00 | 0.00 | 55 | 1015.6 |
| 20260504014505 | 68 | 166 | 2.0 | 6.0 | 0.00 | 0.00 | 0.00 | 55 | 1015.6 |
| 20260504014406 | 68 | 166 | 2.0 | 6.0 | 0.00 | 0.00 | 0.00 | 54 | 1015.6 |
| 20260504014305 | 68 | 165 | 2.0 | 6.0 | 0.00 | 0.00 | 0.00 | 55 | 1015.6 |
| 20260504014205 | 68 | 163 | 2.0 | 4.0 | 0.00 | 0.00 | 0.00 | 54 | 1015.6 |
| 20260504014105 | 68 | 161 | 2.0 | 4.0 | 0.00 | 0.00 | 0.00 | 54 | 1015.6 |
| 20260504014005 | 68 | 159 | 2.0 | 4.0 | 0.00 | 0.00 | 0.00 | 54 | 1015.6 |
| 20260504013905 | 68 | 158 | 2.0 | 4.0 | 0.00 | 0.00 | 0.00 | 54 | 1015.6 |
| 20260504013805 | 68 | 156 | 2.0 | 4.0 | 0.00 | 0.00 | 0.00 | 54 | 1015.5 |
| 20260504013705 | 68 | 156 | 2.0 | 4.0 | 0.00 | 0.00 | 0.00 | 54 | 1015.5 |
| 20260504013606 | 68 | 156 | 2.0 | 4.0 | 0.00 | 0.00 | 0.00 | 54 | 1015.5 |
| 20260504013505 | 68 | 155 | 2.0 | 6.0 | 0.00 | 0.00 | 0.00 | 54 | 1015.5 |
| 20260504013406 | 68 | 154 | 2.0 | 6.0 | 0.00 | 0.00 | 0.00 | 54 | 1015.5 |
| 20260504013205 | 68 | 152 | 2.0 | 6.0 | 0.00 | 0.00 | 0.00 | 53 | 1015.5 |
| 20260504013106 | 68 | 152 | 2.0 | 6.0 | 0.00 | 0.00 | 0.00 | 53 | 1015.4 |
| 20260504013005 | 68 | 150 | 3.0 | 6.0 | 0.00 | 0.00 | 0.00 | 53 | 1015.4 |
| 20260504012906 | 68 | 150 | 3.0 | 6.0 | 0.00 | 0.00 | 0.00 | 53 | 1015.4 |
| 20260504012705 | 69 | 150 | 3.0 | 6.0 | 0.00 | 0.00 | 0.00 | 53 | 1015.4 |
| 20260504012606 | 69 | 150 | 3.0 | 6.0 | 0.00 | 0.00 | 0.00 | 53 | 1015.3 |
| 20260504012406 | 69 | 151 | 3.0 | 4.0 | 0.00 | 0.00 | 0.00 | 52 | 1015.4 |
| 20260504012305 | 69 | 151 | 3.0 | 4.0 | 0.00 | 0.00 | 0.00 | 52 | 1015.4 |
| 20260504012206 | 69 | 151 | 3.0 | 4.0 | 0.00 | 0.00 | 0.00 | 52 | 1015.4 |
| 20260504012005 | 69 | 154 | 3.0 | 5.0 | 0.00 | 0.00 | 0.00 | 51 | 1015.4 |
| 20260504011805 | 70 | 157 | 3.0 | 5.0 | 0.00 | 0.00 | 0.00 | 51 | 1015.4 |
| 20260504011706 | 70 | 158 | 3.0 | 5.0 | 0.00 | 0.00 | 0.00 | 51 | 1015.5 |
| 20260504011605 | 70 | 158 | 3.0 | 5.0 | 0.00 | 0.00 | 0.00 | 51 | 1015.4 |
| 20260504011506 | 70 | 159 | 3.0 | 5.0 | 0.00 | 0.00 | 0.00 | 51 | 1015.4 |
| 20260504011406 | 70 | 159 | 3.0 | 5.0 | 0.00 | 0.00 | 0.00 | 50 | 1015.5 |
| 20260504011305 | 70 | 160 | 3.0 | 6.0 | 0.00 | 0.00 | 0.00 | 50 | 1015.5 |
| 20260504011105 | 70 | 159 | 3.0 | 6.0 | 0.00 | 0.00 | 0.00 | 50 | 1015.5 |
| 20260504011005 | 70 | 158 | 3.0 | 6.0 | 0.00 | 0.00 | 0.00 | 50 | 1015.5 |
| 20260504010906 | 70 | 157 | 3.0 | 6.0 | 0.00 | 0.00 | 0.00 | 50 | 1015.5 |
| 20260504010706 | 70 | 155 | 3.0 | 6.0 | 0.00 | 0.00 | 0.00 | 49 | 1015.5 |
| 20260504010606 | 71 | 154 | 3.0 | 6.0 | 0.00 | 0.00 | 0.00 | 49 | 1015.5 |
| 20260504010505 | 71 | 152 | 3.0 | 6.0 | 0.00 | 0.00 | 0.00 | 49 | 1015.5 |
| 20260504010406 | 71 | 151 | 3.0 | 7.0 | 0.00 | 0.00 | 0.00 | 49 | 1015.4 |
| 20260504010305 | 71 | 151 | 3.0 | 7.0 | 0.00 | 0.00 | 0.00 | 48 | 1015.4 |
| 20260504010206 | 71 | 151 | 4.0 | 7.0 | 0.00 | 0.00 | 0.00 | 48 | 1015.4 |
| 20260504010005 | 71 | 152 | 4.0 | 7.0 | 0.00 | 0.00 | 0.00 | 48 | 1015.4 |
| 20260504005805 | 71 | 153 | 4.0 | 7.0 | 0.00 | 0.00 | 0.00 | 47 | 1015.5 |
| 20260504005705 | 72 | 153 | 5.0 | 9.0 | 0.00 | 0.00 | 0.00 | 47 | 1015.5 |
| 20260504005606 | 72 | 153 | 5.0 | 9.0 | 0.00 | 0.00 | 0.00 | 47 | 1015.6 |
| 20260504005406 | 72 | 154 | 5.0 | 9.0 | 0.00 | 0.00 | 0.00 | 47 | 1015.6 |
| 20260504005205 | 72 | 153 | 5.0 | 9.0 | 0.00 | 0.00 | 0.00 | 46 | 1015.5 |
| 20260504005106 | 72 | 154 | 5.0 | 9.0 | 0.00 | 0.00 | 0.00 | 46 | 1015.6 |
| 20260504005005 | 72 | 154 | 5.0 | 9.0 | 0.00 | 0.00 | 0.00 | 46 | 1015.6 |
| 20260504004905 | 72 | 153 | 5.0 | 9.0 | 0.00 | 0.00 | 0.00 | 45 | 1015.5 |
| 20260504004806 | 72 | 152 | 5.0 | 9.0 | 0.00 | 0.00 | 0.00 | 45 | 1015.5 |
| 20260504004705 | 72 | 151 | 5.0 | 8.0 | 0.00 | 0.00 | 0.00 | 45 | 1015.5 |
| 20260504004605 | 72 | 150 | 5.0 | 8.0 | 0.00 | 0.00 | 0.00 | 45 | 1015.4 |
| 20260504004505 | 73 | 151 | 5.0 | 8.0 | 0.00 | 0.00 | 0.00 | 45 | 1015.4 |
| 20260504004405 | 73 | 151 | 5.0 | 8.0 | 0.00 | 0.00 | 0.00 | 45 | 1015.4 |
| 20260504004306 | 73 | 150 | 5.0 | 8.0 | 0.00 | 0.00 | 0.00 | 44 | 1015.4 |
| 20260504004205 | 73 | 151 | 5.0 | 10.0 | 0.00 | 0.00 | 0.00 | 44 | 1015.4 |
| 20260504004106 | 73 | 150 | 5.0 | 10.0 | 0.00 | 0.00 | 0.00 | 44 | 1015.4 |
| 20260504004005 | 73 | 150 | 5.0 | 10.0 | 0.00 | 0.00 | 0.00 | 44 | 1015.5 |
| 20260504003806 | 73 | 151 | 5.0 | 10.0 | 0.00 | 0.00 | 0.00 | 44 | 1015.5 |
| 20260504003605 | 73 | 153 | 5.0 | 10.0 | 0.00 | 0.00 | 0.00 | 44 | 1015.5 |
| 20260504003505 | 73 | 153 | 5.0 | 10.0 | 0.00 | 0.00 | 0.00 | 44 | 1015.5 |
| 20260504003406 | 73 | 153 | 5.0 | 10.0 | 0.00 | 0.00 | 0.00 | 44 | 1015.5 |
| 20260504003305 | 73 | 153 | 5.0 | 10.0 | 0.00 | 0.00 | 0.00 | 44 | 1015.5 |
| 20260504003205 | 73 | 154 | 5.0 | 10.0 | 0.00 | 0.00 | 0.00 | 44 | 1015.4 |
| 20260504003106 | 73 | 154 | 5.0 | 8.0 | 0.00 | 0.00 | 0.00 | 44 | 1015.4 |
| 20260504002905 | 74 | 153 | 5.0 | 8.0 | 0.00 | 0.00 | 0.00 | 44 | 1015.4 |
| 20260504002805 | 74 | 153 | 5.0 | 9.0 | 0.00 | 0.00 | 0.00 | 44 | 1015.4 |
| 20260504002706 | 74 | 153 | 5.0 | 9.0 | 0.00 | 0.00 | 0.00 | 44 | 1015.5 |
| 20260504002605 | 74 | 151 | 5.0 | 9.0 | 0.00 | 0.00 | 0.00 | 43 | 1015.5 |
| 20260504002406 | 74 | 150 | 5.0 | 9.0 | 0.00 | 0.00 | 0.00 | 43 | 1015.5 |
| 20260504002305 | 74 | 150 | 5.0 | 9.0 | 0.00 | 0.00 | 0.00 | 43 | 1015.6 |
| 20260504002205 | 74 | 149 | 5.0 | 9.0 | 0.00 | 0.00 | 0.00 | 43 | 1015.5 |
| 20260504002105 | 74 | 150 | 5.0 | 9.0 | 0.00 | 0.00 | 0.00 | 43 | 1015.6 |
| 20260504002006 | 74 | 150 | 5.0 | 9.0 | 0.00 | 0.00 | 0.00 | 43 | 1015.5 |
| 20260504001807 | 74 | 153 | 5.0 | 9.0 | 0.00 | 0.00 | 0.00 | 43 | 1015.6 |
| 20260504001705 | 74 | 153 | 5.0 | 10.0 | 0.00 | 0.00 | 0.00 | 43 | 1015.6 |
| 20260504001605 | 74 | 154 | 5.0 | 10.0 | 0.00 | 0.00 | 0.00 | 43 | 1015.5 |
| 20260504001505 | 74 | 154 | 5.0 | 10.0 | 0.00 | 0.00 | 0.00 | 43 | 1015.5 |
| 20260504001306 | 74 | 156 | 6.0 | 10.0 | 0.00 | 0.00 | 0.00 | 43 | 1015.6 |
| 20260504001205 | 74 | 158 | 6.0 | 10.0 | 0.00 | 0.00 | 0.00 | 43 | 1015.6 |
| 20260504001106 | 74 | 157 | 6.0 | 10.0 | 0.00 | 0.00 | 0.00 | 42 | 1015.6 |
| 20260504001006 | 74 | 156 | 6.0 | 10.0 | 0.00 | 0.00 | 0.00 | 42 | 1015.6 |
| 20260504000905 | 74 | 156 | 6.0 | 10.0 | 0.00 | 0.00 | 0.00 | 42 | 1015.6 |
| 20260504000706 | 74 | 156 | 6.0 | 10.0 | 0.00 | 0.00 | 0.00 | 42 | 1015.6 |
| 20260504000605 | 74 | 156 | 6.0 | 10.0 | 0.00 | 0.00 | 0.00 | 42 | 1015.7 |
| 20260504000505 | 74 | 157 | 6.0 | 11.0 | 0.00 | 0.00 | 0.00 | 42 | 1015.7 |
| 20260504000405 | 74 | 155 | 5.0 | 11.0 | 0.00 | 0.00 | 0.00 | 42 | 1015.7 |
| 20260504000305 | 75 | 154 | 5.0 | 11.0 | 0.00 | 0.00 | 0.00 | 42 | 1015.7 |
| 20260504000205 | 75 | 153 | 5.0 | 11.0 | 0.00 | 0.00 | 0.00 | 42 | 1015.7 |
| 20260504000105 | 75 | 154 | 6.0 | 11.0 | 0.00 | 0.00 | 0.00 | 42 | 1015.7 |
| 20260504000005 | 75 | 154 | 6.0 | 11.0 | 0.00 | 0.00 | 0.00 | 41 | 1015.7 |
| 20260503235905 | 75 | 153 | 6.0 | 11.0 | 0.00 | 0.00 | 0.00 | 41 | 1015.7 |
| 20260503235805 | 75 | 153 | 5.0 | 11.0 | 0.00 | 0.00 | 0.00 | 41 | 1015.7 |
| 20260503235705 | 75 | 152 | 5.0 | 11.0 | 0.00 | 0.00 | 0.00 | 41 | 1015.7 |
| 20260503235505 | 75 | 150 | 6.0 | 11.0 | 0.00 | 0.00 | 0.00 | 41 | 1015.7 |
| 20260503235405 | 75 | 151 | 5.0 | 11.0 | 0.00 | 0.00 | 0.00 | 41 | 1015.7 |
| 20260503235305 | 75 | 151 | 5.0 | 11.0 | 0.00 | 0.00 | 0.00 | 41 | 1015.7 |
| 20260503235105 | 75 | 150 | 5.0 | 11.0 | 0.00 | 0.00 | 0.00 | 40 | 1015.8 |
| 20260503235005 | 75 | 149 | 5.0 | 11.0 | 0.00 | 0.00 | 0.00 | 40 | 1015.7 |
| 20260503234705 | 75 | 149 | 5.0 | 11.0 | 0.00 | 0.00 | 0.00 | 40 | 1015.8 |
| 20260503234606 | 75 | 147 | 5.0 | 10.0 | 0.00 | 0.00 | 0.00 | 39 | 1015.8 |
| 20260503234505 | 76 | 147 | 5.0 | 10.0 | 0.00 | 0.00 | 0.00 | 39 | 1015.8 |
| 20260503234406 | 76 | 146 | 6.0 | 9.0 | 0.00 | 0.00 | 0.00 | 39 | 1015.8 |
| 20260503234205 | 76 | 144 | 6.0 | 13.0 | 0.00 | 0.00 | 0.00 | 39 | 1015.9 |
| 20260503234105 | 76 | 146 | 6.0 | 13.0 | 0.00 | 0.00 | 0.00 | 39 | 1015.9 |
| 20260503234006 | 75 | 144 | 6.0 | 13.0 | 0.00 | 0.00 | 0.00 | 39 | 1015.8 |
| 20260503233906 | 76 | 146 | 6.0 | 13.0 | 0.00 | 0.00 | 0.00 | 38 | 1015.8 |
| 20260503233806 | 75 | 147 | 6.0 | 13.0 | 0.00 | 0.00 | 0.00 | 38 | 1015.8 |
| 20260503233705 | 76 | 147 | 7.0 | 13.0 | 0.00 | 0.00 | 0.00 | 38 | 1015.8 |
| 20260503233605 | 76 | 151 | 7.0 | 13.0 | 0.00 | 0.00 | 0.00 | 38 | 1015.8 |
| 20260503233505 | 76 | 154 | 7.0 | 13.0 | 0.00 | 0.00 | 0.00 | 39 | 1015.9 |
| 20260503233405 | 76 | 155 | 7.0 | 13.0 | 0.00 | 0.00 | 0.00 | 38 | 1016.0 |
| 20260503233305 | 76 | 157 | 7.0 | 12.0 | 0.00 | 0.00 | 0.00 | 38 | 1016.0 |
| 20260503233206 | 76 | 158 | 7.0 | 12.0 | 0.00 | 0.00 | 0.00 | 38 | 1016.0 |
| 20260503233006 | 76 | 159 | 7.0 | 12.0 | 0.00 | 0.00 | 0.00 | 39 | 1016.0 |
| 20260503232905 | 76 | 160 | 7.0 | 12.0 | 0.00 | 0.00 | 0.00 | 39 | 1016.0 |
| 20260503232805 | 76 | 162 | 7.0 | 12.0 | 0.00 | 0.00 | 0.00 | 38 | 1016.0 |
| 20260503232705 | 76 | 164 | 7.0 | 12.0 | 0.00 | 0.00 | 0.00 | 39 | 1016.0 |
| 20260503232605 | 76 | 163 | 7.0 | 12.0 | 0.00 | 0.00 | 0.00 | 39 | 1016.0 |
| 20260503232505 | 77 | 164 | 6.0 | 12.0 | 0.00 | 0.00 | 0.00 | 38 | 1015.9 |
| 20260503232305 | 77 | 162 | 6.0 | 12.0 | 0.00 | 0.00 | 0.00 | 37 | 1016.0 |
| 20260503232205 | 77 | 162 | 6.0 | 12.0 | 0.00 | 0.00 | 0.00 | 37 | 1016.0 |
| 20260503232104 | 77 | 162 | 6.0 | 12.0 | 0.00 | 0.00 | 0.00 | 37 | 1016.1 |
| 20260503232005 | 78 | 161 | 6.0 | 12.0 | 0.00 | 0.00 | 0.00 | 37 | 1016.0 |
| 20260503231905 | 78 | 161 | 5.0 | 12.0 | 0.00 | 0.00 | 0.00 | 37 | 1016.0 |
| 20260503231806 | 78 | 158 | 6.0 | 12.0 | 0.00 | 0.00 | 0.00 | 37 | 1016.1 |
| 20260503231705 | 78 | 154 | 6.0 | 12.0 | 0.00 | 0.00 | 0.00 | 37 | 1016.0 |
| 20260503231605 | 78 | 154 | 6.0 | 12.0 | 0.00 | 0.00 | 0.00 | 37 | 1016.1 |
| 20260503231505 | 78 | 152 | 6.0 | 12.0 | 0.00 | 0.00 | 0.00 | 38 | 1016.0 |
| 20260503231105 | 78 | 153 | 6.0 | 13.0 | 0.00 | 0.00 | 0.00 | 36 | 1016.0 |
| 20260503230905 | 78 | 153 | 7.0 | 13.0 | 0.00 | 0.00 | 0.00 | 36 | 1016.0 |
| 20260503230805 | 77 | 155 | 7.0 | 13.0 | 0.00 | 0.00 | 0.00 | 36 | 1016.0 |
| 20260503230705 | 77 | 157 | 8.0 | 14.0 | 0.00 | 0.00 | 0.00 | 36 | 1016.0 |
| 20260503230605 | 77 | 161 | 8.0 | 14.0 | 0.00 | 0.00 | 0.00 | 37 | 1016.0 |
| 20260503230507 | 77 | 162 | 8.0 | 14.0 | 0.00 | 0.00 | 0.00 | 37 | 1016.0 |
| 20260503230405 | 77 | 163 | 9.0 | 14.0 | 0.00 | 0.00 | 0.00 | 37 | 1016.0 |
| 20260503230305 | 77 | 162 | 9.0 | 14.0 | 0.00 | 0.00 | 0.00 | 37 | 1016.1 |
| 20260503230205 | 77 | 161 | 8.0 | 14.0 | 0.00 | 0.00 | 0.00 | 37 | 1016.1 |
| 20260503230105 | 77 | 161 | 8.0 | 14.0 | 0.00 | 0.00 | 0.00 | 38 | 1016.1 |
| 20260503230006 | 77 | 161 | 9.0 | 14.0 | 0.00 | 0.00 | 0.00 | 38 | 1016.1 |
| 20260503225906 | 77 | 162 | 9.0 | 14.0 | 0.00 | 0.00 | 0.00 | 36 | 1016.1 |
| 20260503225805 | 77 | 160 | 8.0 | 14.0 | 0.00 | 0.00 | 0.00 | 36 | 1016.1 |
| 20260503225704 | 77 | 158 | 8.0 | 14.0 | 0.00 | 0.00 | 0.00 | 36 | 1016.1 |
| 20260503225605 | 78 | 154 | 8.0 | 14.0 | 0.00 | 0.00 | 0.00 | 36 | 1016.1 |
| 20260503225506 | 78 | 150 | 8.0 | 13.0 | 0.00 | 0.00 | 0.00 | 36 | 1016.1 |
| 20260503225405 | 78 | 150 | 7.0 | 13.0 | 0.00 | 0.00 | 0.00 | 36 | 1016.1 |
| 20260503225305 | 78 | 151 | 7.0 | 13.0 | 0.00 | 0.00 | 0.00 | 36 | 1016.1 |
| 20260503225205 | 78 | 152 | 7.0 | 13.0 | 0.00 | 0.00 | 0.00 | 36 | 1016.2 |
| 20260503225106 | 78 | 153 | 7.0 | 13.0 | 0.00 | 0.00 | 0.00 | 36 | 1016.1 |
| 20260503225005 | 78 | 152 | 7.0 | 13.0 | 0.00 | 0.00 | 0.00 | 35 | 1016.1 |
| 20260503224906 | 78 | 152 | 7.0 | 13.0 | 0.00 | 0.00 | 0.00 | 35 | 1016.1 |
| 20260503224805 | 78 | 153 | 7.0 | 13.0 | 0.00 | 0.00 | 0.00 | 35 | 1016.2 |
| 20260503224704 | 78 | 155 | 7.0 | 13.0 | 0.00 | 0.00 | 0.00 | 36 | 1016.2 |
| 20260503224605 | 79 | 155 | 7.0 | 15.0 | 0.00 | 0.00 | 0.00 | 35 | 1016.2 |
| 20260503224505 | 78 | 155 | 7.0 | 15.0 | 0.00 | 0.00 | 0.00 | 36 | 1016.2 |
| 20260503224305 | 78 | 155 | 8.0 | 15.0 | 0.00 | 0.00 | 0.00 | 37 | 1016.3 |
| 20260503224205 | 78 | 154 | 8.0 | 15.0 | 0.00 | 0.00 | 0.00 | 36 | 1016.4 |
| 20260503224105 | 78 | 156 | 8.0 | 15.0 | 0.00 | 0.00 | 0.00 | 36 | 1016.4 |
| 20260503224006 | 78 | 155 | 8.0 | 15.0 | 0.00 | 0.00 | 0.00 | 36 | 1016.3 |